sat.trackr.live / text

‹ back to catalog

HJS-7D

NORAD 65620 · 2025-209D

PAYLOAD ACTIVE UNKNOWN

§ Identity

Operator
Country
PRC
Launch date
2025-09-16
Launch site
JSC
Launch vehicle
Mass (kg)
RCS (m²)

External: N2YO · Heavens-Above · Gunter

§ Orbital elements

Epoch: 2026-09-20T11:59:04.773120Z

Period
107.34 min
Inclination
50.0025°
Eccentricity
0.0003746
Mean motion
13.41483679 rev/d
Perigee alt
1,101.0 km
Apogee alt
1,106.6 km
Semi-major
7,481.9 km
B*
7.4094e-5
RAAN
9.3490°
Arg perigee
315.8762°
Mean anomaly
44.1816°
Rev number
5,043

§ Raw data

HJS-7D1 65620U 25209D   26263.49936080 -.00000087  00000+0  74094-4 0  99982 65620  50.0025   9.3490 0003746 315.8762  44.1816 13.41483679 50432

JSON: /api/v1/satellites/65620 · /tle

For live sub-satellite position, see the globe view (requires WebGL).

§ Visibility from observer

Set your observer location to see the next 7 days of passes ≥ 10°. The values pass through the URL so the page stays shareable.

No JS? Fill the form by hand. The geolocation button needs JavaScript.